• In Portugal
  • List of Countries
  • For 7 days
  • Water Temperature
  • Satellite Maps
  • Weather Map
  • Weather Widgets
  • user-avatar
    Login

    Hourly Weather Canillo

    Today, 23 May, Wednesday

    Time Temperature Precipitation Wind Pressure Humidity
    00:00 +7°C° 0 mm 1 mps 619 mmHg 90%
    01:00 +7°C° 0 mm 1 mps 619 mmHg 90%
    02:00 +6°C° 0 mm 1 mps 618 mmHg 91%
    03:00 +6°C° 0 mm 1 mps 618 mmHg 91%
    04:00 +7°C° 0 mm 1 mps 619 mmHg 89%
    05:00 +8°C° 0 mm 1 mps 619 mmHg 87%
    06:00 +7°C° 0 mm 0 mps 620 mmHg 85%
    07:00 +10°C° 0.1 mm 1 mps 620 mmHg 79%
    08:00 +12°C° 0.1 mm 1 mps 621 mmHg 73%
    09:00 +13°C° 0.1 mm 1 mps 622 mmHg 66%
    10:00 +14°C° 0.5 mm 1 mps 622 mmHg 65%
    11:00 +14°C° 0.5 mm 2 mps 622 mmHg 64%
    12:00 +14°C° 0.5 mm 2 mps 622 mmHg 62%
    13:00 +14°C° 0.6 mm 2 mps 622 mmHg 64%
    14:00 +14°C° 0.6 mm 2 mps 622 mmHg 66%
    15:00 +14°C° 0.6 mm 2 mps 621 mmHg 69%
    16:00 +14°C° 0.9 mm 2 mps 621 mmHg 73%
    17:00 +13°C° 0.9 mm 2 mps 621 mmHg 77%
    18:00 +12°C° 0.9 mm 1 mps 621 mmHg 82%
    19:00 +11°C° 0.2 mm 1 mps 620 mmHg 85%
    20:00 +10°C° 0.2 mm 1 mps 620 mmHg 88%
    21:00 +8°C° 0.2 mm 1 mps 620 mmHg 91%
    22:00 +8°C° 0.1 mm 1 mps 620 mmHg 91%
    23:00 +8°C° 0.1 mm 1 mps 620 mmHg 91%

    Tomorrow, 24 May, Thursday

    Time Temperature Precipitation Wind Pressure Humidity
    00:00 +8°C° 0.1 mm 1 mps 620 mmHg 91%
    01:00 +8°C° 0 mm 1 mps 619 mmHg 90%
    02:00 +7°C° 0 mm 1 mps 619 mmHg 90%
    03:00 +7°C° 0 mm 1 mps 619 mmHg 89%
    04:00 +8°C° 0 mm 1 mps 619 mmHg 87%
    05:00 +9°C° 0 mm 1 mps 620 mmHg 84%
    06:00 +9°C° 0 mm 1 mps 620 mmHg 82%
    07:00 +11°C° 0 mm 1 mps 621 mmHg 74%
    08:00 +13°C° 0 mm 2 mps 622 mmHg 65%
    09:00 +15°C° 0 mm 2 mps 623 mmHg 57%
    10:00 +16°C° 0 mm 2 mps 623 mmHg 54%
    11:00 +17°C° 0 mm 3 mps 623 mmHg 51%
    12:00 +18°C° 0 mm 3 mps 623 mmHg 48%
    13:00 +18°C° 0.2 mm 3 mps 623 mmHg 49%
    14:00 +18°C° 0.2 mm 3 mps 623 mmHg 49%
    15:00 +18°C° 0.2 mm 3 mps 623 mmHg 49%
    16:00 +17°C° 0.1 mm 3 mps 622 mmHg 54%
    17:00 +16°C° 0.1 mm 2 mps 622 mmHg 60%
    18:00 +15°C° 0.1 mm 2 mps 621 mmHg 65%
    19:00 +13°C° 0 mm 2 mps 621 mmHg 69%
    20:00 +10°C° 0 mm 2 mps 620 mmHg 74%
    21:00 +9°C° 0 mm 1 mps 620 mmHg 78%
    22:00 +9°C° 0 mm 1 mps 619 mmHg 74%
    23:00 +9°C° 0 mm 1 mps 619 mmHg 71%

    Day after tomorrow, 25 May, Friday

    Time Temperature Precipitation Wind Pressure Humidity
    00:00 +8°C° 0 mm 2 mps 619 mmHg 67%
    01:00 +7°C° 0 mm 2 mps 619 mmHg 65%
    02:00 +7°C° 0 mm 2 mps 619 mmHg 62%
    03:00 +7°C° 0 mm 2 mps 619 mmHg 60%
    04:00 +8°C° 0 mm 2 mps 619 mmHg 61%
    05:00 +9°C° 0 mm 2 mps 619 mmHg 61%
    06:00 +10°C° 0 mm 2 mps 620 mmHg 61%
    07:00 +13°C° 0.1 mm 2 mps 620 mmHg 57%
    08:00 +14°C° 0.1 mm 3 mps 621 mmHg 52%
    09:00 +17°C° 0.1 mm 3 mps 622 mmHg 48%
    10:00 +18°C° 0.1 mm 4 mps 622 mmHg 45%
    11:00 +19°C° 0.1 mm 4 mps 622 mmHg 42%
    12:00 +20°C° 0.1 mm 5 mps 623 mmHg 39%
    13:00 +20°C° 0 mm 5 mps 622 mmHg 39%
    14:00 +20°C° 0 mm 5 mps 622 mmHg 39%
    15:00 +20°C° 0 mm 5 mps 622 mmHg 39%
    16:00 +18°C° 0 mm 4 mps 621 mmHg 44%
    17:00 +17°C° 0 mm 4 mps 620 mmHg 50%
    18:00 +14°C° 0 mm 3 mps 619 mmHg 55%
    19:00 +13°C° 0 mm 3 mps 619 mmHg 58%
    20:00 +11°C° 0 mm 3 mps 619 mmHg 61%
    21:00 +9°C° 0 mm 2 mps 618 mmHg 64%
    22:00 +9°C° 0 mm 2 mps 618 mmHg 65%
    23:00 +8°C° 0 mm 2 mps 618 mmHg 66%

    26 May, Saturday

    Time Temperature Precipitation Wind Pressure Humidity
    00:00 +8°C° 0 mm 2 mps 618 mmHg 67%
    01:00 +8°C° 0 mm 2 mps 618 mmHg 70%
    02:00 +8°C° 0 mm 2 mps 618 mmHg 72%
    03:00 +7°C° 0 mm 2 mps 617 mmHg 75%
    04:00 +8°C° 0 mm 2 mps 618 mmHg 74%
    05:00 +9°C° 0 mm 2 mps 618 mmHg 73%
    06:00 +10°C° 0 mm 2 mps 619 mmHg 72%
    07:00 +12°C° 0 mm 3 mps 620 mmHg 64%
    08:00 +14°C° 0 mm 3 mps 621 mmHg 56%
    09:00 +17°C° 0 mm 4 mps 621 mmHg 48%
    10:00 +18°C° 0 mm 4 mps 622 mmHg 46%
    11:00 +19°C° 0 mm 4 mps 622 mmHg 43%
    12:00 +20°C° 0 mm 5 mps 622 mmHg 40%
    13:00 +20°C° 0.1 mm 4 mps 622 mmHg 43%
    14:00 +19°C° 0.1 mm 4 mps 622 mmHg 46%
    15:00 +19°C° 0.1 mm 3 mps 621 mmHg 49%
    16:00 +18°C° 0.2 mm 3 mps 621 mmHg 54%
    17:00 +17°C° 0.2 mm 3 mps 621 mmHg 59%
    18:00 +16°C° 0.2 mm 3 mps 620 mmHg 64%
    19:00 +14°C° 0.3 mm 2 mps 620 mmHg 69%
    20:00 +12°C° 0.3 mm 2 mps 619 mmHg 74%
    21:00 +9°C° 0.3 mm 2 mps 619 mmHg 79%
    22:00 +9°C° 0 mm 2 mps 619 mmHg 77%
    23:00 +9°C° 0 mm 2 mps 619 mmHg 75%

    27 May, Sunday

    Time Temperature Precipitation Wind Pressure Humidity
    00:00 +8°C° 0 mm 2 mps 619 mmHg 73%
    01:00 +8°C° 0 mm 2 mps 618 mmHg 74%
    02:00 +9°C° 0 mm 1 mps 618 mmHg 74%
    03:00 +8°C° 0 mm 1 mps 618 mmHg 74%
    04:00 +9°C° 0 mm 1 mps 618 mmHg 73%
    05:00 +10°C° 0 mm 1 mps 619 mmHg 71%
    06:00 +10°C° 0 mm 2 mps 619 mmHg 69%
    07:00 +13°C° 0 mm 2 mps 620 mmHg 61%
    08:00 +16°C° 0 mm 2 mps 621 mmHg 53%
    09:00 +18°C° 0 mm 2 mps 622 mmHg 45%
    10:00 +19°C° 0 mm 2 mps 622 mmHg 44%
    11:00 +20°C° 0 mm 3 mps 622 mmHg 42%
    12:00 +20°C° 0 mm 3 mps 623 mmHg 40%
    13:00 +20°C° 0.7 mm 3 mps 622 mmHg 46%
    14:00 +19°C° 0.7 mm 3 mps 622 mmHg 52%
    15:00 +18°C° 0.7 mm 3 mps 621 mmHg 58%
    16:00 +17°C° 0.9 mm 3 mps 621 mmHg 64%
    17:00 +16°C° 0.9 mm 2 mps 620 mmHg 69%
    18:00 +15°C° 0.9 mm 1 mps 619 mmHg 75%
    19:00 +14°C° 0.6 mm 1 mps 619 mmHg 79%
    20:00 +12°C° 0.6 mm 2 mps 619 mmHg 83%
    21:00 +10°C° 0.6 mm 2 mps 619 mmHg 87%
    22:00 +10°C° 1.8 mm 2 mps 619 mmHg 88%
    23:00 +9°C° 1.8 mm 2 mps 618 mmHg 89%

    28 May, Monday

    Time Temperature Precipitation Wind Pressure Humidity
    00:00 +9°C° 1.8 mm 2 mps 618 mmHg 90%
    01:00 +9°C° 1.9 mm 2 mps 618 mmHg 91%
    02:00 +10°C° 1.9 mm 1 mps 618 mmHg 92%
    03:00 +9°C° 1.9 mm 1 mps 617 mmHg 93%
    04:00 +10°C° 0.6 mm 1 mps 617 mmHg 91%
    05:00 +10°C° 0.6 mm 1 mps 618 mmHg 90%
    06:00 +10°C° 0.6 mm 1 mps 618 mmHg 89%
    07:00 +10°C° 0.2 mm 2 mps 618 mmHg 86%
    08:00 +12°C° 0.2 mm 2 mps 619 mmHg 82%
    09:00 +13°C° 0.2 mm 2 mps 619 mmHg 79%
    10:00 +14°C° 0.6 mm 2 mps 620 mmHg 76%
    11:00 +15°C° 0.6 mm 2 mps 620 mmHg 73%
    12:00 +15°C° 0.6 mm 2 mps 620 mmHg 71%
    13:00 +15°C° 1.2 mm 2 mps 620 mmHg 72%
    14:00 +15°C° 1.2 mm 2 mps 620 mmHg 74%
    15:00 +15°C° 1.2 mm 2 mps 620 mmHg 76%
    16:00 +14°C° 0.5 mm 2 mps 619 mmHg 79%
    17:00 +14°C° 0.5 mm 2 mps 619 mmHg 82%
    18:00 +13°C° 0.5 mm 1 mps 619 mmHg 85%
    19:00 +12°C° 0.2 mm 1 mps 619 mmHg 89%
    20:00 +11°C° 0.2 mm 1 mps 619 mmHg 93%
    21:00 +10°C° 0.2 mm 1 mps 619 mmHg 97%
    22:00 +10°C° 0 mm 1 mps 619 mmHg 97%
    23:00 +10°C° 0 mm 1 mps 619 mmHg 97%
    Show more